Regional Weather Roundup
Issued by NWS Mt. Holly, NJ

Home | Current Version | Previous Version | Text Only | Print | Product List | Glossary On
Versions: 1 2 3 4 5 6 7 8 9 10 11 12 13 14 15 16 17 18 19 20 21 22 23 24 25 26 27 28
000
ASUS41 KPHI 260812
RWRPHI
REGIONAL WEATHER ROUNDUP
NATIONAL WEATHER SERVICE MOUNT HOLLY NJ
400 AM EDT FRI AUG 26 2016

NOTE:  "FAIR" INDICATES FEW OR NO CLOUDS BELOW 12,000 FEET WITH NO
SIGNIFICANT WEATHER AND/OR OBSTRUCTIONS TO VISIBILITY.

 * = STATION DOES NOT REPORT PRECIPITATION (E.G. RAIN, SNOW, ETC.)
        OR FOG.

NJZ015>026-260900-
SOUTHERN NEW JERSEY

CITY           SKY/WX    TMP DP  RH WIND       PRES   REMARKS
POMONA         FAIR      74  68  81 S7        30.01S
WILDWOOD*        N/A     74  70  87 SW8       30.02F
MILLVILLE      FAIR      73  72  96 SW3       30.02S
WRIGHTSTOWN    MOCLDY    71  69  92 SW2       29.99R
MOUNT HOLLY    MOCLDY    71  69  93 CALM      30.00S
TRENTON        FAIR      74  69  85 SE7       29.98F

$$
NJZ001>014-260900-
NORTHERN NEW JERSEY

CITY           SKY/WX    TMP DP  RH WIND       PRES   REMARKS
SUSSEX         FOG       68  68 100 CALM      29.98S VSB 3/4
ANDOVER*         N/A     70  69  97 CALM      29.99F
MORRISTOWN     FAIR      68  68 100 CALM      29.98F FOG
NEWARK         FAIR      76  70  82 SW9       29.98S
TETERBORO      FAIR      76  70  82 S6        29.97S
CALDWELL       FAIR      75  71  87 VRB3      29.98F
SOMERVILLE     FAIR      69  68  96 CALM      29.96F FOG
ALLAIRE*       FAIR      72  68  87 S7        30.02R
TOMS RIVER*    FAIR      72  68  87 SW7       30.01S

$$
PAZ043-044-047-054-055-060>062-066>071-260900-
EASTERN PENNSYLVANIA

CITY           SKY/WX    TMP DP  RH WIND       PRES   REMARKS
PHILADELPHIA   FAIR      76  70  82 S7        30.00F
NORTH PHILA    FAIR      77  71  82 CALM      30.00F
BLUE BELL*     FAIR      73  70  88 CALM      29.98F
DOYLESTOWN     FAIR      75  72  90 S3        29.99F
QUAKERTOWN*    FAIR      73  72  94 CALM      30.01S
POTTSTOWN      FAIR      73  72  96 CALM      30.00F
LANCASTER      FAIR      73  73 100 CALM      30.00R FOG
COATESVILLE    CLOUDY    73  73 100 CALM      30.03S FOG
READING        FAIR      76  72  87 CALM      29.98S
ALLENTOWN      FAIR      72  69  90 NW5       29.99R FOG
MOUNT POCONO   CLOUDY    71  69  93 W9        30.04F
WILKES BARRE   CLOUDY    74  72  93 SW3       29.99S

$$
DEZALL-MDZ008-012-015-019-020-260900-
DELAWARE AND EASTERN MARYLAND

CITY           SKY/WX    TMP DP  RH WIND       PRES   REMARKS
WILMINGTON     FAIR      74  70  87 CALM      30.01S
DOVER          FAIR      75  75 100 S9        29.99F
GEORGETOWN     FAIR      73  70  90 S7        30.03F
EASTON         FAIR      78  77  98 SW5       30.05S
PATUXENT       FAIR      78  70  76 SW10      30.01F
OCEAN CITY     FAIR      78  71  79 SW9       30.04S
WALLOPS ISLAND FAIR      76  68  76 SW8       30.05S
SALISBURY      FAIR      73  70  90 S7        30.03F

$$
PAZ001-021-NYZ056-072-MDZ011-DCZ001-260900-
OTHER NEARBY LOCATIONS

CITY           SKY/WX    TMP DP  RH WIND       PRES   REMARKS
HARRISBURG     TSTM      77  75  93 N9G22     30.00R
STATE COLLEGE  FAIR      71  70  97 SW5       30.04S
WILLIAMSPORT   FAIR      75  71  87 W3        29.97R
BINGHAMTON     MOCLDY    71  69  93 SW6       30.00R
NEW YORK CITY    N/A     77  70  78 MISG        N/A
BALTIMORE      FAIR      75  72  90 CALM      30.00S
WASHINGTON DC  FAIR      79  75  87 S6        30.01S

$$




USA.gov is the U.S. government's official web portal to all federal, state and local government web resources and services.